Kuchera_Ratio
0.0 0.0 0.0 0.0 0.0 0.0 0.0 0.0 0.0 0.0 0.0 0.0 0.0 0.0 0.0 0.0 0.0 0.0 0.0 0.0 0.0 0.0 0.0 0.0 0.0 0.0 0.0
4.9 1.9 1.2 0.0 0.0 1.1 0.0 0.0 0.0 0.0 0.0 0.0 0.0 0.0 0.0 0.0 0.0 0.0 0.0 0.0 0.0 0.0 0.0 0.0 0.0 0.0 0.0
6.3 1.8 1.6 1.2 1.7 0.6 1.3 0.5 0.0 0.0 0.0 0.0 0.0 0.0 0.0 0.0 0.0 0.0 0.0 0.0 0.0 0.0 0.0 0.0 0.0 0.0 0.0
6.7 7.8 4.1 2.0 3.6 5.1 5.5 2.6 2.4 0.0 0.0 0.0 0.0 0.0 0.0 0.0 0.0 0.0 0.0 0.0 0.0 0.0 0.0 0.0 0.0 0.0 0.0
8.3 7.4 8.8 6.5 7.9 5.5 7.5 6.1 4.5 2.4 2.7 1.5 0.0 0.3 0.0 0.0 0.0 0.0 0.0 0.0 0.0 0.0 0.0 0.0 0.0 0.0 0.0
10.2 9.6 8.4 7.3 6.5 8.7 10.0 11.7 12.8 1.4 4.6 6.8 1.5 3.2 1.4 0.5 0.7 0.2 0.0 0.0 0.0 0.0 0.0 0.0 0.0 0.0 0.0
8.4 8.8 9.4 7.2 10.0 11.4 10.4 11.3 12.2 5.9 6.9 11.7 3.9 5.4 1.8 1.0 1.2 0.8 0.1 0.0 0.0 0.0 0.0 0.0 0.0 0.0 0.0
4.6 5.1 6.1 4.2 5.3 7.3 10.3 10.8 8.4 5.9 5.0 13.8 6.6 8.1 3.9 2.3 1.5 1.0 0.4 0.0 0.0 0.0 0.0 0.0 0.0 0.0 0.0
2.9 2.4 3.1 3.4 4.6 8.6 12.3 13.9 14.3 12.2 7.2 10.9 9.4 9.8 8.2 6.8 2.4 1.0 0.0 0.0 0.1 0.6 0.4 0.0 0.0 0.0 0.0
6.6 6.7 6.4 6.8 5.9 7.8 12.0 15.2 14.9 15.3 7.5 13.2 12.7 12.0 14.0 5.5 3.8 3.1 1.1 0.8 0.4 0.4 1.1 1.0 0.6 2.6 3.1
10.3 9.7 9.0 8.3 8.4 9.0 11.2 13.9 15.3 15.2 10.4 12.3 13.5 13.2 13.7 13.2 7.8 5.0 4.7 3.3 2.8 2.4 1.2 1.3 2.1 2.6 6.1
12.7 12.6 12.5 12.8 12.4 12.2 12.2 12.6 12.5 14.0 12.7 13.1 14.5 14.2 14.2 13.8 12.9 6.5 5.3 3.9 2.8 3.0 3.1 1.7 0.9 1.3 1.1
13.7 13.7 13.3 13.1 13.4 13.4 12.9 12.8 13.0 12.4 12.0 12.0 13.2 12.8 12.5 13.0 12.6 10.4 8.9 5.9 4.0 6.4 5.4 5.9 6.5 6.9 8.4
14.3 13.6 13.1 13.6 14.1 13.3 14.7 14.1 14.5 13.5 10.2 9.2 10.2 10.8 10.8 10.0 11.0 11.0 7.2 10.1 6.5 5.8 6.3 5.8 5.6 6.5 6.4
14.4 14.7 14.6 14.5 14.7 13.7 14.2 14.3 15.4 14.9 13.9 10.4 8.2 7.1 7.7 9.3 11.0 7.7 8.1 7.5 6.6 6.9 7.1 7.2 6.7 7.2 7.0
14.9 15.1 15.7 15.8 15.4 14.1 14.2 15.0 15.4 14.5 13.8 12.0 10.3 11.0 8.5 5.2 2.1 8.2 6.6 8.5 7.1 6.4 6.3 8.0 7.0 9.0 6.3
15.6 15.7 15.4 15.1 15.4 15.5 15.2 14.8 14.5 13.6 12.3 10.2 12.4 12.3 13.7 13.4 5.0 1.6 9.5 8.0 7.8 7.0 6.5 6.9 8.0 7.4 6.6